Torna al catalogo

COSMOS 1275 DEB

AttivoPO
NORAD 12712·DEBRIS·🇷🇺 Russia

Lanciato Jun 4, 1981 da Plesetsk Cosmodrome

Loading…

Prossimi Passaggi (prossime 24 ore)

TLE

AggiornatoSource: Space-Track

Epoca: Sep 14, 2026, 10:14 UTC

1 12712U 81053BG  26257.42660431  .00000830  00000-0  65331-3 0  9990
2 12712  82.9808 249.2789 0067994 197.0178 316.8723 13.89607867263847

Traccia COSMOS 1275 DEB in tempo reale con AllMySat

Download on the App Store